QPF
0.00 0.00 0.00 0.00 0.00 0.00 0.00 0.00 0.00 0.00 0.00 0.00 0.00 0.00 0.00 0.00 0.00 0.00 0.00 0.00 0.00 0.00 0.00 0.00 0.00 0.00 0.00 0.00 0.00 0.00 0.00 0.00 0.00 0.00 0.00 0.00 0.00 0.00 0.00 0.00 0.00 0.00 0.00 0.00 0.00
0.00 0.00 0.00 0.00 0.00 0.00 0.00 0.00 0.00 0.00 0.00 0.00 0.00 0.00 0.00 0.00 0.00 0.00 0.00 0.00 0.00 0.00 0.00 0.00 0.00 0.00 0.00 0.00 0.00 0.00 0.00 0.00 0.00 0.00 0.00 0.00 0.00 0.00 0.00 0.00 0.00 0.00 0.00 0.00 0.00
0.00 0.00 0.00 0.00 0.00 0.00 0.00 0.00 0.00 0.00 0.00 0.00 0.00 0.00 0.00 0.00 0.00 0.00 0.00 0.00 0.00 0.00 0.00 0.00 0.00 0.00 0.00 0.00 0.00 0.00 0.00 0.00 0.00 0.00 0.00 0.00 0.00 0.00 0.00 0.00 0.00 0.00 0.00 0.00 0.00
0.00 0.00 0.00 0.00 0.00 0.00 0.00 0.00 0.00 0.00 0.00 0.00 0.00 0.00 0.00 0.00 0.00 0.00 0.00 0.00 0.00 0.00 0.00 0.00 0.00 0.00 0.00 0.00 0.00 0.00 0.00 0.00 0.00 0.00 0.00 0.00 0.00 0.00 0.00 0.00 0.00 0.00 0.00 0.00 0.00
0.00 0.00 0.00 0.00 0.00 0.00 0.00 0.00 0.00 0.00 0.00 0.00 0.00 0.00 0.00 0.00 0.00 0.00 0.00 0.00 0.00 0.00 0.00 0.00 0.00 0.00 0.00 0.00 0.00 0.00 0.00 0.00 0.00 0.00 0.00 0.00 0.00 0.00 0.00 0.00 0.00 0.00 0.00 0.00 0.00
0.00 0.00 0.00 0.00 0.00 0.00 0.00 0.00 0.00 0.00 0.00 0.00 0.00 0.00 0.00 0.00 0.00 0.00 0.00 0.00 0.00 0.00 0.00 0.00 0.00 0.00 0.00 0.00 0.00 0.00 0.00 0.00 0.00 0.00 0.00 0.00 0.00 0.00 0.00 0.00 0.00 0.00 0.00 0.00 0.00
0.00 0.00 0.00 0.00 0.00 0.00 0.00 0.00 0.00 0.00 0.00 0.00 0.00 0.00 0.00 0.00 0.00 0.00 0.00 0.00 0.00 0.00 0.00 0.00 0.00 0.00 0.00 0.00 0.00 0.00 0.00 0.00 0.00 0.00 0.00 0.00 0.00 0.00 0.00 0.00 0.00 0.00 0.00 0.00 0.00
0.00 0.00 0.00 0.00 0.00 0.00 0.00 0.00 0.00 0.00 0.00 0.00 0.00 0.00 0.00 0.00 0.00 0.00 0.00 0.00 0.00 0.00 0.00 0.00 0.00 0.00 0.00 0.00 0.00 0.00 0.00 0.00 0.00 0.00 0.00 0.00 0.00 0.00 0.00 0.00 0.00 0.00 0.00 0.00 0.00
0.00 0.00 0.00 0.00 0.00 0.00 0.00 0.00 0.00 0.00 0.00 0.00 0.00 0.00 0.00 0.00 0.00 0.00 0.00 0.00 0.00 0.00 0.00 0.00 0.00 0.00 0.00 0.00 0.00 0.00 0.00 0.00 0.00 0.00 0.00 0.00 0.00 0.00 0.00 0.00 0.00 0.00 0.00 0.00 0.00
0.00 0.00 0.00 0.00 0.00 0.00 0.00 0.00 0.00 0.00 0.00 0.00 0.00 0.00 0.00 0.00 0.00 0.00 0.00 0.00 0.00 0.00 0.00 0.00 0.00 0.00 0.00 0.00 0.00 0.00 0.00 0.00 0.00 0.00 0.00 0.00 0.00 0.00 0.00 0.00 0.00 0.00 0.00 0.00 0.00
0.00 0.00 0.00 0.00 0.00 0.00 0.00 0.00 0.00 0.00 0.00 0.00 0.00 0.00 0.00 0.00 0.00 0.00 0.00 0.00 0.00 0.00 0.00 0.00 0.00 0.00 0.00 0.00 0.00 0.00 0.00 0.00 0.00 0.00 0.00 0.00 0.00 0.00 0.00 0.00 0.00 0.00 0.00 0.00 0.00
0.00 0.00 0.00 0.00 0.00 0.00 0.00 0.00 0.00 0.00 0.00 0.00 0.00 0.00 0.00 0.00 0.00 0.00 0.00 0.00 0.00 0.00 0.00 0.00 0.00 0.00 0.00 0.00 0.00 0.00 0.00 0.00 0.00 0.00 0.00 0.00 0.00 0.00 0.00 0.00 0.00 0.00 0.00 0.00 0.00
0.00 0.00 0.00 0.00 0.00 0.00 0.00 0.00 0.00 0.00 0.00 0.00 0.00 0.00 0.00 0.00 0.00 0.00 0.00 0.00 0.00 0.00 0.00 0.00 0.00 0.00 0.00 0.00 0.00 0.00 0.00 0.00 0.00 0.00 0.00 0.00 0.00 0.00 0.00 0.00 0.00 0.00 0.00 0.00 0.00
0.00 0.00 0.00 0.00 0.00 0.00 0.00 0.00 0.00 0.00 0.00 0.00 0.00 0.00 0.00 0.00 0.00 0.00 0.00 0.00 0.00 0.00 0.00 0.00 0.00 0.00 0.00 0.00 0.00 0.00 0.00 0.00 0.00 0.00 0.00 0.00 0.00 0.00 0.00 0.00 0.00 0.00 0.00 0.00 0.00
0.00 0.00 0.00 0.00 0.00 0.00 0.00 0.00 0.00 0.00 0.00 0.00 0.00 0.00 0.00 0.00 0.00 0.00 0.00 0.00 0.00 0.00 0.00 0.00 0.00 0.00 0.00 0.00 0.00 0.00 0.00 0.00 0.00 0.00 0.00 0.00 0.00 0.00 0.00 0.00 0.00 0.00 0.00 0.00 0.00
0.00 0.00 0.00 0.00 0.00 0.00 0.00 0.00 0.00 0.00 0.00 0.00 0.00 0.00 0.00 0.00 0.00 0.00 0.00 0.00 0.00 0.00 0.00 0.00 0.00 0.00 0.00 0.00 0.00 0.00 0.00 0.00 0.00 0.00 0.00 0.00 0.00 0.00 0.00 0.00 0.00 0.00 0.00 0.00 0.00
0.00 0.00 0.00 0.00 0.00 0.00 0.00 0.00 0.00 0.00 0.00 0.00 0.00 0.00 0.00 0.00 0.00 0.00 0.00 0.00 0.00 0.00 0.00 0.00 0.00 0.00 0.00 0.00 0.00 0.00 0.00 0.00 0.00 0.00 0.00 0.00 0.00 0.00 0.00 0.00 0.00 0.00 0.00 0.00 0.00
0.00 0.00 0.00 0.00 0.00 0.00 0.00 0.00 0.00 0.00 0.00 0.00 0.00 0.00 0.00 0.00 0.00 0.00 0.00 0.00 0.00 0.00 0.00 0.00 0.00 0.00 0.00 0.00 0.00 0.00 0.00 0.00 0.00 0.00 0.00 0.00 0.00 0.00 0.00 0.00 0.00 0.00 0.00 0.00 0.00
0.00 0.00 0.00 0.00 0.00 0.00 0.00 0.00 0.00 0.00 0.00 0.00 0.00 0.00 0.00 0.00 0.00 0.00 0.00 0.00 0.00 0.00 0.00 0.00 0.00 0.00 0.00 0.00 0.00 0.00 0.00 0.00 0.00 0.00 0.00 0.00 0.00 0.00 0.00 0.00 0.00 0.00 0.00 0.00 0.00
0.00 0.00 0.00 0.00 0.00 0.00 0.00 0.00 0.00 0.00 0.00 0.00 0.00 0.00 0.00 0.00 0.00 0.00 0.00 0.00 0.00 0.00 0.00 0.00 0.00 0.00 0.00 0.00 0.00 0.00 0.00 0.00 0.00 0.00 0.00 0.00 0.00 0.00 0.00 0.00 0.00 0.00 0.00 0.00 0.00
0.00 0.00 0.00 0.00 0.00 0.00 0.00 0.00 0.00 0.00 0.00 0.00 0.00 0.00 0.00 0.00 0.00 0.00 0.00 0.00 0.00 0.00 0.00 0.00 0.00 0.00 0.00 0.00 0.00 0.00 0.00 0.00 0.00 0.00 0.00 0.00 0.00 0.00 0.00 0.00 0.00 0.00 0.00 0.00 0.00
0.01 0.00 0.00 0.00 0.00 0.00 0.00 0.00 0.00 0.00 0.00 0.00 0.00 0.00 0.00 0.00 0.00 0.00 0.00 0.00 0.00 0.00 0.00 0.00 0.00 0.00 0.00 0.00 0.00 0.00 0.00 0.00 0.00 0.00 0.00 0.00 0.00 0.00 0.00 0.00 0.00 0.00 0.00 0.00 0.00
0.02 0.01 0.00 0.00 0.00 0.00 0.00 0.00 0.00 0.00 0.00 0.00 0.00 0.00 0.00 0.00 0.00 0.00 0.00 0.00 0.00 0.00 0.00 0.00 0.00 0.00 0.00 0.00 0.00 0.00 0.00 0.00 0.00 0.00 0.00 0.00 0.00 0.00 0.00 0.00 0.00 0.00 0.00 0.00 0.00
0.03 0.01 0.00 0.00 0.00 0.00 0.00 0.00 0.00 0.00 0.00 0.00 0.00 0.00 0.00 0.00 0.00 0.00 0.00 0.00 0.00 0.00 0.00 0.00 0.00 0.00 0.00 0.00 0.00 0.00 0.00 0.00 0.00 0.00 0.00 0.00 0.00 0.00 0.00 0.00 0.00 0.00 0.00 0.00 0.00
0.04 0.02 0.01 0.00 0.00 0.00 0.00 0.00 0.00 0.00 0.00 0.00 0.00 0.00 0.00 0.00 0.00 0.00 0.00 0.00 0.00 0.00 0.00 0.00 0.00 0.00 0.00 0.00 0.00 0.00 0.00 0.00 0.00 0.00 0.00 0.00 0.00 0.00 0.00 0.00 0.00 0.00 0.00 0.00 0.00
0.03 0.03 0.01 0.00 0.00 0.00 0.00 0.00 0.00 0.00 0.00 0.00 0.00 0.00 0.00 0.00 0.00 0.00 0.00 0.00 0.00 0.00 0.00 0.00 0.00 0.00 0.00 0.00 0.00 0.00 0.00 0.00 0.00 0.00 0.00 0.00 0.00 0.00 0.00 0.00 0.00 0.00 0.00 0.00 0.00
0.05 0.02 0.00 0.00 0.00 0.00 0.00 0.00 0.00 0.00 0.00 0.00 0.00 0.00 0.00 0.00 0.00 0.00 0.00 0.00 0.00 0.00 0.00 0.00 0.00 0.00 0.00 0.00 0.00 0.00 0.00 0.00 0.00 0.00 0.00 0.00 0.00 0.00 0.00 0.00 0.00 0.00 0.00 0.00 0.00
MSLP
1018.16 1017.81 1017.63 1017.48 1017.19 1017.12 1016.97 1016.83 1016.71 1016.52 1016.28 1016.10 1015.87 1015.58 1015.23 1014.87 1014.48 1014.50 1014.61 1014.65 1014.47 1014.06 1014.02 1014.03 1013.77 1013.79 1014.01 1014.88 1015.43 1016.02 1017.46 1018.80 1018.68 1018.72 1017.86 1017.83 1018.13 1018.51 1018.91 1019.52 1020.20 1020.67 1021.11 1021.24 1022.18
1018.24 1017.94 1017.69 1017.54 1017.30 1017.00 1016.84 1016.69 1016.48 1016.30 1016.19 1015.97 1015.76 1015.52 1015.24 1014.96 1014.71 1014.54 1014.39 1014.28 1014.19 1014.14 1014.25 1014.27 1014.21 1014.17 1014.90 1015.38 1015.95 1016.50 1017.62 1017.74 1017.54 1017.54 1017.55 1017.72 1017.97 1018.52 1019.17 1019.86 1020.52 1021.16 1021.65 1021.91 1022.57
1018.45 1017.98 1017.73 1017.55 1017.32 1017.10 1016.76 1016.56 1016.47 1016.33 1016.13 1015.95 1015.76 1015.56 1015.37 1015.17 1015.04 1014.26 1014.09 1014.03 1013.96 1014.04 1014.30 1014.36 1014.30 1014.39 1015.12 1015.57 1016.29 1016.85 1017.29 1017.35 1017.27 1017.21 1017.35 1017.75 1018.26 1018.63 1019.20 1020.06 1020.11 1020.74 1021.82 1022.36 1022.83
1018.56 1018.15 1017.73 1017.47 1017.27 1017.05 1016.85 1016.52 1016.28 1016.13 1016.07 1015.98 1015.75 1015.49 1015.33 1015.36 1015.21 1014.08 1013.93 1013.83 1013.78 1013.98 1014.25 1014.29 1014.29 1014.76 1015.50 1016.01 1016.40 1016.98 1017.28 1017.27 1017.28 1017.27 1017.52 1017.95 1018.33 1018.79 1019.17 1019.16 1019.29 1020.08 1021.04 1022.04 1022.79
1018.69 1018.25 1017.78 1017.49 1017.12 1017.01 1016.80 1016.49 1016.27 1016.11 1015.93 1015.80 1015.69 1015.56 1015.40 1015.35 1014.53 1013.91 1013.91 1013.83 1013.73 1013.93 1014.08 1014.25 1014.42 1014.93 1015.77 1016.31 1016.68 1017.04 1017.38 1017.41 1017.41 1017.50 1017.72 1017.97 1018.37 1018.68 1018.98 1019.18 1019.59 1020.43 1021.42 1022.10 1022.78
1018.83 1018.36 1017.83 1017.39 1017.12 1016.85 1016.62 1016.42 1016.10 1015.99 1015.86 1015.71 1015.59 1015.51 1015.51 1015.17 1013.93 1013.92 1013.87 1013.82 1013.92 1013.93 1014.14 1014.34 1014.54 1014.89 1015.90 1016.55 1016.95 1017.33 1017.54 1017.63 1017.55 1017.66 1017.83 1018.22 1018.70 1018.95 1018.89 1019.36 1020.18 1020.77 1021.51 1022.23 1022.67
1018.84 1018.43 1017.97 1017.35 1017.00 1016.68 1016.47 1016.24 1015.98 1015.77 1015.73 1015.62 1015.52 1015.51 1015.28 1014.17 1013.73 1013.90 1013.94 1013.96 1014.00 1014.01 1014.18 1014.29 1014.39 1014.97 1015.86 1016.75 1017.23 1017.48 1017.81 1017.81 1017.76 1017.82 1018.00 1018.23 1018.91 1018.65 1018.88 1019.64 1020.48 1021.12 1021.63 1022.23 1022.70
1018.98 1018.41 1017.91 1017.35 1016.90 1016.47 1016.13 1015.99 1015.79 1015.58 1015.45 1015.39 1015.32 1015.46 1014.53 1013.55 1013.64 1013.79 1013.93 1014.07 1014.10 1014.06 1014.20 1014.40 1014.50 1015.26 1016.15 1017.00 1017.46 1017.92 1018.10 1018.15 1017.55 1017.71 1018.05 1018.52 1018.32 1018.41 1019.08 1019.84 1020.83 1021.42 1021.91 1022.29 1022.68
1019.15 1018.44 1017.85 1017.22 1016.67 1016.26 1015.81 1015.47 1015.36 1015.33 1015.26 1015.22 1015.35 1015.11 1014.43 1013.76 1013.74 1013.80 1013.86 1014.01 1014.12 1014.16 1014.27 1014.43 1014.92 1016.22 1016.79 1017.40 1018.31 1018.51 1018.40 1018.24 1017.81 1017.76 1018.22 1018.80 1018.71 1018.60 1019.31 1020.17 1021.09 1021.55 1021.96 1022.33 1022.75
1019.13 1018.42 1017.74 1017.09 1016.48 1015.92 1015.41 1015.12 1014.92 1015.01 1015.11 1015.20 1015.14 1015.33 1014.16 1013.72 1013.67 1013.72 1013.80 1013.86 1013.98 1014.26 1014.65 1015.00 1015.88 1016.77 1017.52 1017.76 1018.16 1018.26 1018.43 1018.16 1018.03 1018.03 1018.45 1018.94 1018.52 1018.94 1019.53 1020.27 1020.95 1021.58 1022.07 1022.36 1022.57
1019.23 1018.48 1017.64 1016.91 1016.24 1015.69 1015.27 1015.00 1015.64 1015.69 1015.26 1014.44 1014.19 1013.90 1013.61 1013.64 1013.80 1013.88 1013.86 1013.88 1014.10 1014.50 1015.16 1015.72 1016.68 1016.99 1017.12 1017.38 1017.31 1017.58 1017.92 1018.00 1017.88 1018.09 1018.72 1018.72 1018.50 1018.42 1019.11 1020.05 1020.81 1021.53 1021.85 1022.13 1022.31
1019.41 1018.59 1017.75 1016.70 1016.11 1015.50 1015.62 1015.93 1016.15 1016.68 1015.45 1013.97 1013.90 1013.79 1013.48 1013.50 1013.94 1013.93 1013.98 1014.09 1014.29 1014.89 1015.47 1016.40 1016.58 1016.65 1016.97 1017.32 1017.46 1017.63 1017.99 1018.17 1018.23 1018.50 1019.03 1019.04 1018.49 1017.89 1018.29 1018.67 1019.34 1020.09 1020.94 1021.48 1022.11
1019.42 1018.72 1017.89 1016.83 1016.01 1015.75 1016.38 1016.48 1016.52 1016.49 1016.06 1014.04 1013.41 1013.28 1013.28 1013.52 1013.56 1013.75 1013.93 1013.92 1014.40 1015.20 1015.71 1016.22 1016.30 1016.48 1016.92 1017.50 1017.77 1017.85 1018.02 1018.27 1018.72 1019.08 1019.44 1019.67 1018.26 1017.46 1017.69 1018.14 1018.75 1019.35 1019.90 1020.66 1021.10
1019.16 1018.81 1018.15 1017.08 1016.43 1016.50 1016.40 1016.40 1016.32 1016.47 1016.22 1013.94 1013.26 1012.63 1013.03 1013.25 1013.52 1013.43 1013.68 1013.90 1014.53 1015.07 1015.99 1016.25 1016.28 1016.68 1017.01 1017.32 1017.76 1018.30 1018.09 1018.57 1019.19 1019.80 1020.47 1020.22 1019.30 1017.61 1017.59 1018.10 1018.52 1018.92 1019.46 1019.91 1020.53
1018.89 1018.59 1018.29 1017.97 1017.23 1016.54 1016.00 1016.03 1016.19 1016.29 1015.96 1013.45 1013.04 1012.68 1012.79 1013.30 1013.43 1013.58 1013.68 1013.76 1014.49 1015.27 1016.07 1016.12 1016.52 1016.85 1017.20 1017.22 1017.64 1018.25 1018.63 1019.46 1020.03 1020.72 1021.20 1020.83 1020.99 1017.12 1017.55 1017.55 1017.60 1017.97 1018.57 1019.11 1019.68
1018.61 1018.16 1018.00 1017.68 1017.53 1016.10 1015.83 1015.68 1016.24 1016.68 1014.71 1013.14 1012.81 1012.81 1013.11 1013.32 1013.43 1013.64 1013.83 1014.03 1014.67 1015.44 1016.10 1016.46 1016.56 1016.75 1017.05 1017.65 1018.00 1018.88 1019.49 1020.30 1021.15 1021.64 1021.69 1020.42 1020.48 1017.26 1016.81 1016.07 1016.24 1016.83 1017.67 1018.41 1019.24
1018.25 1017.65 1017.70 1017.79 1016.83 1015.73 1015.94 1016.04 1016.77 1015.67 1013.30 1012.75 1012.65 1013.01 1013.14 1013.53 1013.69 1013.69 1014.08 1014.49 1014.76 1015.78 1016.30 1016.80 1016.79 1016.90 1017.11 1018.06 1018.67 1019.12 1020.09 1021.08 1021.91 1022.24 1021.19 1020.48 1020.42 1016.23 1015.25 1015.38 1015.70 1016.17 1016.93 1017.77 1018.66
1017.96 1017.06 1016.34 1016.11 1016.28 1016.34 1015.94 1016.50 1015.95 1013.86 1012.93 1012.40 1012.33 1012.83 1013.34 1013.28 1013.71 1014.04 1014.26 1014.60 1014.68 1014.95 1016.24 1016.61 1016.95 1016.75 1016.94 1017.29 1017.77 1018.99 1019.52 1020.39 1021.26 1021.99 1021.35 1020.71 1018.82 1014.90 1014.73 1015.06 1015.59 1016.03 1016.61 1017.51 1018.51
1017.61 1016.39 1016.00 1014.84 1015.37 1016.55 1016.09 1015.64 1013.66 1013.10 1012.05 1012.45 1012.92 1012.94 1013.12 1013.15 1013.46 1014.22 1014.46 1014.10 1013.47 1013.96 1014.71 1015.83 1016.37 1016.74 1017.01 1017.31 1017.79 1018.99 1019.55 1019.64 1020.69 1021.97 1021.88 1019.42 1017.45 1014.72 1014.80 1015.22 1015.79 1016.35 1016.96 1017.61 1018.42
1017.86 1016.39 1014.88 1013.81 1014.53 1016.31 1015.90 1013.66 1012.93 1011.83 1011.41 1011.84 1012.30 1012.13 1012.53 1013.00 1013.75 1013.97 1013.96 1012.56 1012.69 1012.86 1013.09 1014.31 1016.02 1017.02 1017.42 1017.56 1017.96 1018.12 1018.69 1019.82 1020.63 1021.57 1021.29 1019.27 1018.25 1015.60 1014.88 1015.24 1015.91 1016.69 1017.23 1017.92 1018.68
1017.35 1015.73 1013.77 1013.91 1014.49 1015.68 1014.76 1013.46 1012.15 1011.23 1010.88 1011.05 1011.22 1011.76 1012.22 1012.59 1012.87 1013.48 1013.06 1012.26 1012.12 1013.04 1013.36 1014.11 1015.01 1017.59 1017.67 1017.44 1017.33 1018.41 1018.58 1019.31 1019.84 1020.29 1020.46 1020.01 1016.67 1014.53 1014.55 1014.78 1015.46 1016.36 1017.15 1017.95 1018.94
1017.50 1015.45 1014.17 1013.80 1014.72 1013.79 1013.35 1011.98 1011.17 1010.82 1011.09 1010.81 1010.85 1010.85 1011.44 1011.81 1012.38 1012.75 1012.35 1011.80 1011.49 1012.13 1013.44 1013.82 1014.72 1016.64 1016.51 1016.65 1016.86 1017.07 1017.40 1018.01 1019.16 1020.07 1020.43 1019.83 1016.36 1014.17 1014.63 1014.92 1015.43 1016.35 1017.27 1018.21 1019.17
1017.27 1015.56 1014.17 1014.55 1013.69 1013.17 1012.31 1011.38 1010.74 1010.17 1010.13 1010.47 1010.52 1010.28 1010.46 1011.11 1011.92 1011.65 1011.45 1011.42 1011.44 1011.80 1012.12 1013.03 1014.21 1015.97 1016.61 1017.39 1017.18 1016.96 1017.07 1017.30 1018.00 1018.78 1018.92 1018.67 1015.45 1014.47 1014.71 1015.04 1015.55 1016.41 1017.53 1018.66 1019.85
1017.55 1015.84 1014.54 1014.39 1013.07 1012.63 1011.89 1010.81 1010.41 1009.58 1009.27 1009.02 1009.49 1009.92 1010.38 1010.69 1010.74 1011.08 1011.58 1011.65 1011.79 1011.97 1012.27 1012.57 1013.27 1013.53 1014.16 1014.44 1014.83 1016.19 1016.18 1016.48 1016.84 1017.81 1016.92 1015.64 1014.14 1014.30 1014.68 1015.16 1015.92 1016.72 1017.78 1019.02 1020.23
1017.72 1015.79 1014.74 1014.03 1013.44 1012.85 1012.09 1010.33 1009.55 1009.59 1009.33 1008.81 1009.00 1009.25 1009.47 1010.14 1010.55 1010.90 1011.51 1011.97 1012.50 1012.59 1012.63 1013.29 1013.42 1013.69 1014.03 1014.30 1014.46 1014.66 1015.07 1015.68 1015.60 1014.73 1015.01 1012.70 1013.51 1012.56 1013.93 1014.44 1015.19 1016.44 1018.13 1019.50 1020.71
1017.74 1016.59 1015.61 1014.75 1014.11 1013.16 1011.93 1010.58 1009.40 1008.35 1008.56 1008.25 1007.83 1008.48 1008.67 1008.74 1008.84 1009.88 1010.79 1011.60 1011.87 1013.05 1013.35 1013.56 1013.56 1014.11 1014.52 1014.28 1014.44 1014.51 1014.34 1014.15 1014.12 1013.80 1013.23 1012.83 1012.39 1012.47 1013.75 1014.52 1015.56 1016.67 1018.19 1019.54 1020.86
1017.22 1016.80 1016.33 1015.09 1014.22 1013.46 1012.21 1010.61 1009.42 1009.11 1007.82 1007.23 1007.29 1007.36 1008.32 1008.25 1008.96 1009.72 1010.10 1010.27 1010.86 1012.03 1013.28 1013.64 1013.65 1014.61 1014.50 1014.41 1014.44 1013.83 1011.75 1012.33 1012.08 1011.78 1011.80 1012.71 1009.92 1012.05 1013.81 1014.77 1015.66 1016.92 1018.27 1019.53 1020.76
Thickness
5691 5693 5694 5694 5695 5695 5695 5695 5695 5695 5695 5695 5696 5697 5700 5702 5704 5703 5698 5702 5704 5709 5711 5712 5715 5714 5713 5704 5702 5696 5668 5657 5665 5662 5678 5679 5678 5677 5673 5668 5665 5660 5657 5657 5647
5691 5692 5693 5694 5694 5696 5696 5696 5697 5698 5698 5699 5699 5701 5702 5704 5705 5701 5708 5708 5710 5710 5710 5708 5708 5710 5697 5699 5693 5684 5668 5674 5677 5676 5678 5678 5680 5673 5669 5663 5659 5654 5649 5647 5641
5689 5691 5692 5693 5695 5695 5697 5698 5698 5699 5700 5700 5701 5702 5703 5704 5700 5705 5711 5712 5712 5712 5711 5710 5709 5707 5696 5695 5689 5682 5676 5679 5681 5682 5680 5674 5672 5671 5662 5658 5660 5655 5644 5641 5636
5687 5690 5692 5693 5694 5696 5697 5698 5699 5699 5699 5700 5702 5704 5705 5704 5688 5710 5713 5714 5714 5714 5711 5709 5707 5699 5688 5688 5687 5682 5678 5680 5680 5681 5678 5672 5669 5667 5665 5669 5669 5659 5652 5642 5633
5685 5688 5691 5693 5694 5694 5695 5697 5698 5699 5699 5700 5700 5701 5703 5698 5700 5714 5714 5714 5715 5714 5710 5706 5703 5696 5686 5684 5683 5678 5675 5677 5677 5676 5674 5671 5669 5667 5664 5667 5661 5653 5645 5637 5629
5682 5685 5690 5693 5694 5694 5695 5696 5697 5698 5699 5699 5700 5700 5698 5688 5713 5714 5714 5714 5712 5711 5707 5705 5700 5698 5684 5680 5679 5673 5670 5670 5673 5672 5671 5667 5663 5663 5665 5660 5653 5649 5639 5630 5626
5678 5682 5686 5691 5693 5694 5694 5695 5696 5697 5698 5699 5698 5698 5696 5697 5712 5712 5711 5710 5710 5709 5704 5704 5703 5699 5687 5678 5673 5670 5666 5667 5667 5667 5666 5664 5659 5658 5664 5655 5649 5642 5634 5626 5620
5674 5678 5682 5688 5691 5694 5696 5695 5695 5696 5697 5697 5697 5696 5692 5711 5710 5709 5708 5706 5706 5706 5703 5702 5700 5689 5683 5674 5667 5663 5658 5653 5665 5664 5663 5660 5652 5662 5654 5649 5640 5632 5626 5622 5616
5667 5673 5678 5683 5688 5692 5695 5697 5696 5695 5695 5694 5694 5694 5690 5707 5703 5705 5705 5702 5700 5700 5699 5698 5691 5676 5674 5661 5651 5649 5647 5647 5659 5657 5656 5651 5650 5659 5645 5642 5631 5625 5620 5615 5609
5659 5667 5673 5679 5683 5688 5693 5695 5695 5693 5692 5690 5690 5685 5694 5695 5701 5701 5701 5700 5697 5693 5689 5685 5671 5661 5653 5651 5638 5648 5644 5647 5648 5654 5648 5644 5645 5651 5641 5634 5626 5618 5611 5608 5604
5651 5657 5665 5673 5678 5683 5688 5689 5680 5679 5685 5685 5690 5690 5693 5696 5696 5694 5695 5693 5691 5686 5671 5670 5660 5652 5656 5654 5660 5653 5648 5649 5650 5648 5643 5639 5642 5647 5642 5628 5619 5612 5607 5604 5599
5641 5647 5654 5664 5670 5676 5676 5674 5673 5670 5671 5686 5687 5687 5691 5691 5684 5686 5689 5683 5680 5669 5667 5659 5652 5660 5655 5654 5653 5651 5646 5642 5643 5640 5635 5633 5640 5646 5640 5638 5632 5623 5613 5605 5593
5632 5638 5643 5652 5660 5664 5661 5662 5661 5661 5659 5678 5683 5683 5684 5684 5680 5678 5681 5680 5673 5661 5657 5653 5662 5655 5654 5646 5643 5642 5639 5637 5637 5629 5624 5618 5631 5643 5640 5636 5624 5618 5617 5605 5599
5622 5626 5632 5639 5645 5645 5651 5652 5652 5650 5636 5667 5671 5679 5679 5678 5674 5679 5677 5675 5666 5657 5649 5653 5653 5650 5647 5645 5638 5636 5636 5632 5627 5619 5614 5614 5616 5643 5632 5623 5621 5613 5606 5603 5594
5608 5613 5618 5620 5628 5635 5642 5643 5643 5641 5593 5665 5666 5677 5673 5668 5669 5667 5669 5669 5656 5651 5648 5650 5641 5640 5640 5642 5635 5636 5627 5621 5615 5603 5600 5605 5596 5637 5621 5626 5621 5616 5607 5603 5595
5593 5598 5605 5611 5613 5627 5629 5632 5629 5608 5595 5653 5659 5658 5658 5660 5660 5659 5660 5659 5652 5646 5640 5639 5639 5639 5638 5629 5628 5614 5611 5598 5580 5579 5577 5605 5596 5632 5629 5638 5639 5622 5609 5601 5590
5580 5587 5590 5593 5606 5616 5615 5615 5594 5572 5645 5647 5648 5648 5650 5646 5648 5650 5646 5642 5637 5627 5629 5630 5630 5629 5629 5618 5616 5612 5603 5587 5583 5566 5598 5592 5576 5635 5643 5631 5633 5627 5605 5596 5587
5566 5575 5585 5590 5591 5594 5600 5592 5576 5608 5624 5642 5644 5640 5637 5640 5640 5637 5634 5633 5635 5636 5603 5615 5616 5620 5623 5623 5614 5599 5603 5586 5589 5576 5583 5576 5592 5642 5634 5624 5617 5612 5603 5587 5578
5550 5564 5572 5583 5579 5571 5578 5562 5587 5608 5631 5624 5628 5627 5627 5633 5634 5629 5621 5629 5640 5634 5633 5606 5620 5615 5614 5613 5611 5598 5593 5592 5563 5542 5532 5587 5600 5633 5617 5612 5607 5602 5589 5579 5571
5523 5545 5566 5569 5564 5551 5554 5587 5591 5611 5620 5619 5618 5622 5617 5619 5618 5617 5616 5638 5643 5636 5638 5626 5610 5604 5601 5603 5599 5599 5590 5579 5559 5569 5573 5580 5578 5621 5623 5601 5591 5586 5581 5572 5561
5504 5523 5559 5548 5541 5534 5544 5554 5587 5603 5612 5610 5614 5615 5612 5611 5614 5609 5620 5634 5635 5622 5625 5613 5614 5587 5591 5588 5589 5581 5580 5574 5568 5559 5556 5538 5597 5609 5615 5602 5586 5577 5571 5563 5550
5474 5503 5525 5530 5518 5525 5547 5561 5584 5594 5591 5597 5603 5611 5605 5606 5603 5602 5614 5625 5627 5622 5615 5609 5590 5564 5587 5590 5585 5586 5584 5578 5567 5567 5512 5502 5568 5604 5597 5589 5577 5570 5561 5551 5535
5449 5475 5498 5500 5513 5522 5536 5556 5567 5576 5582 5585 5588 5598 5604 5600 5598 5600 5608 5613 5611 5616 5610 5601 5584 5577 5584 5575 5572 5573 5571 5571 5553 5541 5526 5528 5589 5578 5577 5577 5569 5559 5546 5531 5514
5419 5448 5474 5474 5505 5517 5537 5546 5552 5564 5577 5582 5586 5583 5585 5586 5593 5597 5595 5598 5597 5603 5603 5601 5578 5597 5602 5603 5576 5566 5566 5563 5573 5533 5547 5564 5596 5584 5570 5564 5553 5545 5530 5513 5500
5393 5421 5448 5468 5480 5491 5510 5536 5545 5545 5552 5566 5565 5569 5576 5576 5578 5582 5576 5575 5579 5585 5581 5575 5579 5567 5573 5580 5572 5574 5570 5558 5570 5589 5566 5610 5584 5610 5571 5559 5551 5536 5512 5497 5484
5374 5397 5409 5425 5445 5462 5482 5503 5534 5548 5539 5545 5557 5565 5570 5581 5588 5577 5561 5561 5572 5555 5556 5550 5564 5554 5566 5558 5552 5554 5554 5562 5570 5580 5576 5582 5577 5584 5546 5539 5534 5524 5504 5491 5475
5367 5374 5381 5401 5422 5435 5460 5489 5515 5522 5533 5548 5552 5556 5547 5567 5568 5550 5553 5561 5565 5551 5541 5538 5536 5536 5546 5542 5540 5531 5585 5564 5583 5567 5579 5559 5606 5556 5540 5536 5527 5506 5495 5481 5464